[[{"header":{"parameterUnit":"m.s-1","parameterCategory":1,"la1":30.2991,"la2":30.254,"lo1":-89.0895,"lo2":-89.0444,"dy":0.0017,"dx":0.0017,"nx":28,"ny":28,"refTime":"2024-08-05T09:00:00:Z","depth":0,"parameterNumber":2,"parameterNumberName":"U-component_of_WINDS"},"data":[0,0,0,0,0,0,0,0,0,0,0,0,0,0,0,0,0,0,0,0,0,0,0,0,0,0,0,0,0,0,0,0,0,0,0,0,0,0,0,0,0,0,0,0,0,0,0,0,0,0,0,0,0,0,0,0,0,0,-0.1956,-0.1956,0,-0.1946,-0.1946,-0.1946,-0.1976,-0.1977,-0.1978,-0.1979,-0.1969,-0.1968,-0.1966,0,0,0,0,0,0,0,0,0,0,0,0,0,-0.2,-0.1999,-0.1956,-0.1956,-0.1956,-0.1946,-0.1946,-0.1946,-0.1976,-0.1977,-0.1978,-0.1979,-0.1969,-0.1968,-0.1966,0,0,0,0,0,0,0,0,0,0,0,0,0,-0.1984,-0.1999,-0.1956,-0.1969,-0.1971,-0.1946,-0.1946,-0.1946,-0.1976,-0.1977,-0.1978,-0.198,-0.1969,-0.1968,-0.1966,-0.1928,0,0,-0.1961,-0.196,0,0,0,0,0,0,0,0,-0.1985,-0.1983,-0.1968,-0.1968,-0.197,-0.1964,-0.1958,-0.194,-0.1975,-0.1974,-0.1979,-0.198,-0.1966,-0.1965,-0.196,-0.1928,-0.1927,-0.1961,-0.196,-0.1959,-0.1959,0,0,0,0,0,0,0,-0.1986,-0.1983,-0.1952,-0.1967,-0.1969,-0.1976,-0.1975,-0.1954,-0.1962,-0.1974,-0.1976,-0.1975,-0.1967,-0.1961,-0.196,-0.1927,-0.1961,-0.1959,-0.1958,-0.1958,-0.1862,-0.1861,0,0,0,0,0,0,-0.1986,-0.1984,-0.1952,-0.1952,-0.1981,-0.1974,-0.1973,-0.1964,-0.1962,-0.1964,-0.1973,-0.1976,-0.1963,-0.1962,-0.1959,-0.1914,-0.1959,-0.1958,-0.1957,-0.1863,-0.1862,-0.186,0,0,0,0,0,0,-0.1986,-0.1982,-0.1953,-0.1968,-0.1965,-0.1972,-0.1961,-0.1963,-0.1958,-0.1962,-0.1963,-0.1966,-0.1964,-0.1962,-0.1935,-0.1914,-0.1957,-0.1955,-0.1865,-0.1863,-0.1861,-0.1823,0,0,0,0,0,0,-0.1988,-0.1983,-0.1968,-0.1968,-0.1964,-0.1929,-0.196,-0.1962,-0.1955,-0.1958,-0.1956,-0.1957,-0.1965,-0.1938,-0.1934,-0.1913,-0.1954,-0.1867,-0.1864,-0.1862,-0.1827,-0.182,-0.1815,0,0,0,0,0,-0.1989,-0.1959,-0.1968,-0.1964,-0.1947,-0.1928,-0.1926,-0.1936,-0.1953,-0.1939,-0.1941,-0.1957,-0.1917,-0.1935,-0.193,-0.1909,-0.1869,-0.1865,-0.1862,-0.1829,-0.1821,-0.1815,0,0,0,0,0,0,-0.1957,-0.1959,-0.1969,-0.1937,-0.1932,-0.1933,-0.1915,-0.1927,-0.1917,-0.1921,-0.1934,-0.1933,-0.1904,-0.1904,-0.1924,-0.1871,-0.1896,-0.1891,-0.1873,-0.1865,-0.1859,-0.186,-0.1953,0,0,0,0,0,-0.1946,-0.1931,-0.1933,-0.1905,-0.1902,-0.1909,-0.1901,-0.1909,-0.1904,-0.1902,-0.1903,-0.1897,-0.1884,-0.1874,-0.1862,-0.1827,-0.1826,-0.1809,-0.1803,-0.1798,-0.1794,-0.1775,-0.1767,-0.1849,-0.1849,-0.1849,0,0,-0.1924,-0.1923,-0.1912,-0.1898,-0.1895,-0.1879,-0.1907,-0.1888,-0.1876,-0.1899,-0.1874,-0.1874,-0.1869,-0.1838,-0.1824,-0.1837,-0.1772,-0.1794,-0.179,-0.1789,-0.1771,-0.1763,-0.1756,-0.1846,-0.1847,-0.1847,0,0,-0.1874,-0.1872,-0.1848,-0.1844,-0.1839,-0.1844,-0.1838,-0.1836,-0.1837,-0.1812,-0.1829,-0.1815,-0.1791,-0.1786,-0.1781,-0.1728,-0.1742,-0.1724,-0.1693,-0.1673,-0.1667,-0.1661,-0.1642,-0.1635,-0.172,-0.1719,-0.1719,0,-0.1847,-0.1823,-0.1834,-0.1814,-0.1807,-0.1828,-0.1803,-0.1799,-0.179,-0.1784,-0.1798,-0.1768,-0.1766,-0.1733,-0.172,-0.1715,-0.1709,-0.1724,-0.1667,-0.1661,-0.1656,-0.1638,-0.1631,-0.1717,-0.1718,-0.1718,-0.1718,0,-0.179,-0.1773,-0.1754,-0.1744,-0.1735,-0.1713,-0.172,-0.171,-0.1718,-0.1721,-0.1695,-0.1693,-0.168,-0.1673,-0.1682,-0.1641,-0.1649,-0.1665,-0.169,-0.1646,-0.1629,-0.1622,-0.1714,-0.1715,-0.1716,-0.1716,0,0,-0.1721,-0.1717,-0.171,-0.1705,-0.17,-0.1687,-0.1665,-0.1653,-0.1643,-0.1636,-0.1618,-0.1596,-0.161,-0.1604,-0.1612,-0.1595,-0.1553,-0.1613,-0.1613,-0.1601,-0.1508,-0.1496,-0.1488,-0.1562,-0.156,-0.1559,-0.1508,0,-0.1672,-0.1635,-0.1644,-0.1607,-0.1591,-0.1609,-0.159,-0.1585,-0.1587,-0.1573,-0.1575,-0.156,-0.158,-0.1576,-0.156,-0.1561,-0.1534,-0.1565,-0.1545,-0.1544,-0.1546,-0.1479,-0.1467,-0.1419,-0.1502,-0.15,-0.15,0,-0.1611,-0.1601,-0.1562,-0.1559,-0.1553,-0.1535,-0.1524,-0.151,-0.1504,-0.1507,-0.1499,-0.151,-0.1488,-0.1513,-0.1482,-0.1503,-0.1495,-0.1494,-0.1493,-0.1492,-0.1519,-0.1476,-0.1404,-0.1396,-0.1489,-0.149,-0.1491,0,-0.1565,-0.1541,-0.1515,-0.151,-0.1506,-0.1493,-0.1491,-0.1486,-0.1477,-0.1467,-0.1461,-0.1449,-0.1442,-0.1431,-0.1438,-0.1456,-0.1407,-0.1432,-0.1408,-0.1407,-0.1397,-0.1398,-0.1322,-0.1391,-0.1392,-0.1392,-0.1392,0,-0.1509,-0.1485,-0.1494,-0.1478,-0.145,-0.146,-0.1433,-0.1433,-0.1428,-0.1412,-0.1427,-0.1411,-0.1421,-0.1406,-0.1412,-0.1385,-0.1382,-0.1383,-0.1385,-0.1382,-0.1382,-0.1377,-0.1381,-0.139,-0.139,-0.1391,-0.1391,0,-0.1453,-0.1458,-0.143,-0.1428,-0.1427,-0.1407,-0.1405,-0.1389,-0.1392,-0.1371,-0.1367,-0.137,-0.1353,-0.1359,-0.1341,-0.1345,-0.1311,-0.1317,-0.1313,-0.1315,-0.129,-0.1292,-0.1209,-0.1198,-0.1274,-0.1274,-0.1273,0,-0.1418,-0.1399,-0.1395,-0.1385,-0.1381,-0.1365,-0.1356,-0.1365,-0.1355,-0.1345,-0.1331,-0.1315,-0.1303,-0.1275,-0.1276,-0.1262,-0.1268,-0.124,-0.1266,-0.1263,-0.1267,-0.1268,-0.1266,-0.1235,-0.1234,-0.1233,-0.1232,0,-0.1354,-0.1357,-0.1344,-0.1331,-0.1319,-0.131,-0.1301,-0.1292,-0.13,-0.1288,-0.1271,-0.1261,-0.1242,-0.1226,-0.1213,-0.121,-0.1222,-0.1224,-0.1218,-0.1215,-0.1213,-0.1213,-0.1299,-0.1226,-0.1227,-0.1227,-0.1228,-0.1228,-0.1308,-0.1292,-0.1286,-0.127,-0.1264,-0.1255,-0.1241,-0.1241,-0.1226,-0.1212,-0.1217,-0.1197,-0.119,-0.1174,-0.117,-0.1154,-0.1165,-0.1155,-0.1153,-0.1151,-0.1147,-0.1215,-0.1151,-0.1152,-0.1152,-0.1152,-0.1152,0,-0.1245,-0.1242,-0.1227,-0.1214,-0.1201,-0.1213,-0.1204,-0.1193,-0.1175,-0.1167,-0.1155,-0.1134,-0.1118,-0.1118,-0.1103,-0.109,-0.1095,-0.1086,-0.1087,-0.1086,-0.1139,-0.1146,-0.1082,-0.1082,-0.1082,-0.1082,-0.1082,-0.1082,-0.1211,-0.1185,-0.1186,-0.1157,-0.1154,-0.1134,-0.1128,-0.1119,-0.1113,-0.109,-0.1077,-0.1076,-0.1071,-0.1056,-0.1042,-0.1042,-0.1035,-0.1024,-0.1026,-0.1075,-0.1082,-0.1089,-0.1096,-0.1023,-0.1022,-0.0975,-0.0975,-0.0974]},{"header":{"parameterUnit":"m.s-1","parameterCategory":1,"la1":30.2991,"la2":30.254,"lo1":-89.0895,"lo2":-89.0444,"dy":0.0017,"dx":0.0017,"nx":28,"ny":28,"refTime":"2024-08-05T09:00:00:Z","depth":0,"parameterNumber":3,"parameterNumberName":"V-component_of_WINDS"},"data":[0,0,0,0,0,0,0,0,0,0,0,0,0,0,0,0,0,0,0,0,0,0,0,0,0,0,0,0,0,0,0,0,0,0,0,0,0,0,0,0,0,0,0,0,0,0,0,0,0,0,0,0,0,0,0,0,0,0,-3.7193,-3.7195,0,-3.7344,-3.7345,-3.7347,-3.7391,-3.739,-3.7389,-3.7388,-3.7539,-3.7544,-3.7549,0,0,0,0,0,0,0,0,0,0,0,0,0,-3.6943,-3.6947,-3.7193,-3.7195,-3.7197,-3.7343,-3.7345,-3.7347,-3.7391,-3.739,-3.7389,-3.7388,-3.7538,-3.7543,-3.7549,0,0,0,0,0,0,0,0,0,0,0,0,0,-3.7068,-3.6948,-3.7193,-3.7236,-3.7242,-3.7343,-3.7345,-3.7348,-3.7391,-3.739,-3.7389,-3.7387,-3.7536,-3.7543,-3.755,-3.7618,0,0,-3.7572,-3.7575,0,0,0,0,0,0,0,0,-3.7061,-3.7077,-3.7228,-3.7234,-3.724,-3.7347,-3.7312,-3.7438,-3.7391,-3.7334,-3.7388,-3.7387,-3.7476,-3.7488,-3.7519,-3.7625,-3.7631,-3.7572,-3.7577,-3.758,-3.7582,0,0,0,0,0,0,0,-3.7052,-3.7071,-3.7253,-3.723,-3.7237,-3.7248,-3.7264,-3.7336,-3.741,-3.7339,-3.7343,-3.736,-3.7479,-3.7512,-3.7523,-3.7633,-3.7572,-3.7578,-3.7583,-3.7586,-3.7806,-3.7807,0,0,0,0,0,0,-3.7036,-3.7063,-3.7248,-3.7257,-3.7146,-3.7253,-3.7272,-3.7314,-3.7409,-3.7423,-3.7361,-3.7361,-3.75,-3.7514,-3.7528,-3.7616,-3.758,-3.7586,-3.759,-3.7804,-3.7806,-3.7808,0,0,0,0,0,0,-3.7031,-3.7052,-3.7242,-3.7161,-3.7186,-3.7259,-3.7306,-3.7317,-3.735,-3.7426,-3.7439,-3.7381,-3.75,-3.7518,-3.7596,-3.7622,-3.7589,-3.7596,-3.7802,-3.7805,-3.7807,-3.7791,0,0,0,0,0,0,-3.7023,-3.705,-3.7077,-3.7162,-3.719,-3.7307,-3.7307,-3.7321,-3.7363,-3.7365,-3.7448,-3.7461,-3.75,-3.7585,-3.7603,-3.7631,-3.7601,-3.78,-3.7803,-3.7806,-3.779,-3.7793,-3.7795,0,0,0,0,0,-3.7014,-3.7065,-3.7078,-3.71,-3.7225,-3.7309,-3.7325,-3.7371,-3.7365,-3.7392,-3.7441,-3.7458,-3.7616,-3.7593,-3.7613,-3.7644,-3.7799,-3.7803,-3.7806,-3.7789,-3.7792,-3.7795,0,0,0,0,0,0,-3.6979,-3.7077,-3.7092,-3.7172,-3.7232,-3.7316,-3.7352,-3.7373,-3.7435,-3.7434,-3.7487,-3.7505,-3.758,-3.7619,-3.7592,-3.7716,-3.7708,-3.7716,-3.7688,-3.7692,-3.7694,-3.7684,-3.7607,0,0,0,0,0,-3.6981,-3.7041,-3.7123,-3.7185,-3.7215,-3.7278,-3.7316,-3.7346,-3.741,-3.7435,-3.749,-3.7551,-3.7615,-3.7655,-3.7718,-3.7796,-3.7815,-3.7827,-3.783,-3.7832,-3.7838,-3.7885,-3.7892,-3.7819,-3.7819,-3.7819,0,0,-3.6985,-3.7046,-3.708,-3.718,-3.723,-3.7292,-3.7299,-3.7363,-3.7409,-3.7445,-3.7523,-3.7565,-3.7636,-3.7715,-3.7753,-3.7751,-3.7863,-3.7836,-3.7837,-3.7843,-3.7889,-3.7896,-3.7902,-3.7822,-3.7821,-3.7821,0,0,-3.7024,-3.7075,-3.7135,-3.7185,-3.7262,-3.7304,-3.7318,-3.74,-3.743,-3.7509,-3.7538,-3.7593,-3.7701,-3.7752,-3.7792,-3.7853,-3.7871,-3.7871,-3.7886,-3.7931,-3.7937,-3.7942,-3.7966,-3.7973,-3.7877,-3.7877,-3.7877,0,-3.7019,-3.7113,-3.7162,-3.7226,-3.727,-3.7306,-3.7367,-3.7414,-3.7506,-3.7535,-3.7532,-3.767,-3.772,-3.7813,-3.7828,-3.7859,-3.7877,-3.7862,-3.7932,-3.7938,-3.7944,-3.7967,-3.7975,-3.7877,-3.7877,-3.7877,-3.7877,0,-3.7104,-3.7169,-3.7208,-3.7299,-3.7347,-3.7408,-3.7467,-3.7509,-3.7536,-3.7578,-3.7659,-3.7722,-3.7799,-3.7823,-3.7848,-3.792,-3.7916,-3.7922,-3.7915,-3.7949,-3.7972,-3.7981,-3.7876,-3.7876,-3.7877,-3.7877,0,0,-3.7124,-3.7244,-3.7257,-3.73,-3.7388,-3.7439,-3.7503,-3.758,-3.7616,-3.7679,-3.7735,-3.7827,-3.7833,-3.7878,-3.791,-3.7949,-3.7996,-3.795,-3.7953,-3.7958,-3.8082,-3.8078,-3.8088,-3.8009,-3.8011,-3.8012,-3.8077,0,-3.7176,-3.7293,-3.734,-3.7435,-3.7497,-3.7534,-3.759,-3.765,-3.7692,-3.775,-3.7796,-3.7861,-3.7863,-3.7892,-3.7932,-3.7982,-3.8022,-3.7978,-3.8062,-3.8064,-3.8045,-3.8099,-3.8096,-3.8153,-3.8086,-3.8087,-3.8088,0,-3.7252,-3.7318,-3.7419,-3.7503,-3.753,-3.758,-3.7656,-3.7711,-3.778,-3.7808,-3.786,-3.789,-3.7959,-3.7947,-3.8044,-3.8013,-3.805,-3.808,-3.8083,-3.8094,-3.8079,-3.8113,-3.8172,-3.8181,-3.8102,-3.8101,-3.81,0,-3.7259,-3.7373,-3.7449,-3.7484,-3.7583,-3.7617,-3.766,-3.7728,-3.7772,-3.7838,-3.7868,-3.794,-3.798,-3.8035,-3.8084,-3.8071,-3.8177,-3.8168,-3.8203,-3.8202,-3.8224,-3.8222,-3.8292,-3.8245,-3.8245,-3.8245,-3.8245,0,-3.7312,-3.7373,-3.7454,-3.7501,-3.7571,-3.7625,-3.7692,-3.7737,-3.7798,-3.7855,-3.789,-3.7943,-3.8004,-3.8064,-3.8102,-3.8178,-3.8195,-3.822,-3.823,-3.8218,-3.8215,-3.8244,-3.8242,-3.8247,-3.8247,-3.8246,-3.8246,0,-3.7332,-3.7388,-3.7475,-3.7562,-3.7585,-3.7633,-3.7708,-3.7755,-3.78,-3.7871,-3.7891,-3.796,-3.8033,-3.8088,-3.8181,-3.8207,-3.8289,-3.8298,-3.8266,-3.8271,-3.8303,-3.83,-3.8395,-3.8411,-3.8351,-3.8352,-3.8352,0,-3.7363,-3.7412,-3.7505,-3.7546,-3.7589,-3.7655,-3.7701,-3.7755,-3.7802,-3.7887,-3.7924,-3.8,-3.8064,-3.8179,-3.8237,-3.831,-3.8322,-3.8351,-3.8333,-3.8321,-3.8325,-3.8322,-3.8328,-3.8353,-3.8353,-3.8354,-3.8354,0,-3.7413,-3.7439,-3.7505,-3.7581,-3.7636,-3.7698,-3.7761,-3.7792,-3.7858,-3.7909,-3.7985,-3.8035,-3.8132,-3.8208,-3.8287,-3.833,-3.8354,-3.8359,-3.8371,-3.836,-3.834,-3.8354,-3.8274,-3.8357,-3.8356,-3.8356,-3.8356,-3.8356,-3.7441,-3.7487,-3.7561,-3.7633,-3.7687,-3.7745,-3.7795,-3.7847,-3.7911,-3.7996,-3.8024,-3.8103,-3.8174,-3.8283,-3.8328,-3.839,-3.839,-3.8407,-3.8412,-3.8416,-3.8416,-3.8329,-3.8405,-3.8405,-3.8405,-3.8405,-3.8405,0,-3.7494,-3.7544,-3.7611,-3.7699,-3.7756,-3.7775,-3.7846,-3.7892,-3.7962,-3.8026,-3.8089,-3.8178,-3.8252,-3.8317,-3.8394,-3.8432,-3.8445,-3.8451,-3.8449,-3.846,-3.8411,-3.8393,-3.844,-3.844,-3.8439,-3.8439,-3.8439,-3.8439,-3.7529,-3.7609,-3.7644,-3.7751,-3.78,-3.7879,-3.7919,-3.7973,-3.8025,-3.8123,-3.8186,-3.8228,-3.8294,-3.8376,-3.8445,-3.8463,-3.849,-3.8494,-3.8514,-3.8467,-3.8463,-3.8459,-3.8443,-3.8499,-3.8499,-3.8558,-3.8558,-3.8559]}]]